User: anonymous   Login
Location: Clanezzo
(45.7500°N, 9.6000°E)
Time: 16:33:28
(UTC+00:00)
Language:

Envisat - Orbit

View from above orbital plane
View from above orbital plane
View from above satellite
View from above satellite

Ground track
Ground track

The orbit data is extracted from the following two-line orbital elements,

1 27386U 02009A   22139.99947351  .00000332  00000-0  12302-3 0  9990
2 27386  98.1820 122.4439 0001324  86.7328 340.2342 14.38121234 59444
Epoch (UTC): 19 May 2022 23:59:14
Eccentricity: 0.0001324
inclination: 98.1820°
perigee height: 764 km
apogee height: 765 km
right ascension of ascending node: 122.4439°
argument of perigee: 86.7328°
revolutions per day: 14.38121234
mean anomaly at epoch: 340.2342°
orbit number at epoch: 5944

The dashed part of the orbit path shows where the satellite is in the earth's shadow,  

DLR